Powrót do katalogu

STARLINK-33975

AktywnyŁącznośćVLEO
NORAD 63802·PAYLOAD·🇺🇸 United States

Wystrzelony May 2, 2025 z Cape Canaveral Space Force Station

Loading…

Następne Przeloty (najbliższe 24 godziny)

TLE

ŚwieżeSource: CelesTrak SupGP

Epoka: Sep 14, 2026, 21:25 UTC

1 63802C 25091AC  26257.89284722  .00049132  00000+0  17797-2 0  2578
2 63802  43.0027  63.7002 0001403 274.2031  22.1017 15.27551888    16

Śledź STARLINK-33975 w czasie rzeczywistym z AllMySat

Download on the App Store